Elkins, WV

3:34 AM EDT on July 27, 2017 (GMT -0400)
Elkins-Randolph County

Weather History for KEKN - December, 2013

Change the Weather History Date:

Thursday, December 12, 2013

  Actual Average Record
Temperature  
Mean Temperature 22 °F 33 °F  
Max Temperature 28 °F 43 °F 70 °F (2015)
Min Temperature 16 °F 24 °F -10 °F (1988)
Degree Days  
Heating Degree Days 43 32  
Month to date heating degree days 353 362  
Since 1 July heating degree days 1648 1646  
Cooling Degree Days 0 0  
Month to date cooling degree days 0 0  
Year to date cooling degree days 533 475  
Moisture  
Dew Point 7 °F    
Average Humidity 56    
Maximum Humidity 73    
Minimum Humidity 39    
Precipitation  
Precipitation T in 0.12 in 0.80 in (1902)
Month to date precipitation 3.83 1.36  
Year to date precipitation 43.57 44.03  
Snow  
Snow T in - - ()
Month to date snowfall 4.1  
Since 1 September snowfall 11.0  
Snow Depth 1.00 in    
Sea Level Pressure  
Sea Level Pressure 30.40 in    
Wind  
Wind Speed 8 mph (West)    
Max Wind Speed 21 mph    
Max Gust Speed 31 mph    
Visibility 10 miles    
Events Snow    
T = Trace of Precipitation, MM = Missing Value Source: NWS Daily Summary

Daily Weather History Graph

Daily Weather History Graph

Search for Another Location

Airport or City:

Trip Planner

Search our weather history database for the weather conditions in past years. The results will help you decide how hot, cold, wet, or windy it might be!

Date:

Astronomy

Dec. 12, 2013 Rise Set
Actual Time 7:28 AM EST 4:57 PM EST
Civil Twilight 6:58 AM EST 5:27 PM EST
Nautical Twilight 6:25 AM EST 6:01 PM EST
Astronomical Twilight 5:53 AM EST 6:33 PM EST
Moon 2:02 PM EST (12/12) 2:51 AM EST (12/12)
Length of Visible Light 10h 28m
Length of Day
9h 28m
Waxing Gibbous, 80% of the Moon is Illuminated
Dec 12
Waxing Gibbous
Dec 17
Full
Dec 25
Last Quarter
Jan 1
New
Jan 7
First Quarter

Hourly Weather History & Observations

Time (EST) Temp. Windchill Dew Point Humidity Pressure Visibility Wind Dir Wind Speed Gust Speed Precip Events Conditions
12:51 AM 26.1 °F 12.7 °F 17.1 °F 69% 30.36 in 8.0 mi NW 18.4 mph 23.0 mph 0.00 in Snow Light Snow
1:31 AM 24.8 °F 10.7 °F 15.8 °F 69% 30.29 in 9.0 mi NW 19.6 mph 27.6 mph 0.00 in Snow Light Snow
1:51 AM 24.1 °F 14.4 °F 14.0 °F 65% 30.38 in 8.0 mi West 9.2 mph - 0.00 in Snow Light Snow
2:15 AM 23.0 °F 11.7 °F 14.0 °F 68% 30.30 in 9.0 mi NNW 11.5 mph - 0.00 in Snow Light Snow
2:49 AM 21.2 °F 9.5 °F 12.2 °F 68% 30.30 in 9.0 mi WNW 11.5 mph - 0.00 in Snow Light Snow
2:51 AM 21.9 °F 8.7 °F 12.9 °F 68% 30.39 in 9.0 mi WNW 15.0 mph - 0.00 in Snow Light Snow
3:51 AM 19.9 °F 10.1 °F 12.0 °F 71% 30.40 in 9.0 mi WNW 8.1 mph - 0.00 in Snow Light Snow
4:08 AM 19.4 °F 9.5 °F 10.4 °F 68% 30.31 in 9.0 mi NW 8.1 mph 17.3 mph 0.00 in Snow Light Snow
4:51 AM 19.0 °F 10.0 °F 10.0 °F 68% 30.41 in 10.0 mi Variable 6.9 mph - 0.00 in   Overcast
5:51 AM 18.0 °F 9.8 °F 8.1 °F 65% 30.43 in 10.0 mi WNW 5.8 mph - 0.00 in   Overcast
6:51 AM 17.1 °F 7.6 °F 7.0 °F 65% 30.46 in 10.0 mi Variable 6.9 mph - N/A   Overcast
7:51 AM 17.1 °F 7.6 °F 8.1 °F 68% 30.48 in 9.0 mi West 6.9 mph - 0.00 in Snow Light Snow
8:51 AM 16.0 °F 6.3 °F 7.0 °F 68% 30.49 in 10.0 mi West 6.9 mph - 0.00 in   Overcast
9:51 AM 17.1 °F 8.7 °F 7.0 °F 65% 30.50 in 10.0 mi Variable 5.8 mph - 0.00 in   Overcast
10:51 AM 19.0 °F 7.5 °F 8.1 °F 62% 30.49 in 10.0 mi WSW 10.4 mph - N/A   Overcast
11:11 AM 19.4 °F 8.6 °F 5.0 °F 54% 30.38 in 10.0 mi West 9.2 mph - N/A   Mostly Cloudy
11:51 AM 19.9 °F 11.1 °F 5.0 °F 52% 30.44 in 10.0 mi West 6.9 mph - N/A   Clear
12:51 PM 21.9 °F 14.5 °F 3.9 °F 46% 30.42 in 10.0 mi Variable 5.8 mph 16.1 mph N/A   Clear
1:51 PM 23.0 °F 15.8 °F 3.9 °F 44% 30.40 in 10.0 mi Variable 5.8 mph - N/A   Clear
2:51 PM 23.0 °F 13.1 °F 3.0 °F 42% 30.39 in 10.0 mi West 9.2 mph - N/A   Clear
3:51 PM 23.0 °F 12.4 °F 1.9 °F 40% 30.40 in 10.0 mi West 10.4 mph 19.6 mph N/A   Clear
4:51 PM 21.0 °F 12.4 °F 1.9 °F 44% 30.41 in 10.0 mi West 6.9 mph - N/A   Clear
5:51 PM 19.9 °F 10.1 °F 3.0 °F 48% 30.43 in 10.0 mi WSW 8.1 mph - N/A   Clear
6:51 PM 19.9 °F 12.1 °F 3.0 °F 48% 30.42 in 10.0 mi SSW 5.8 mph - N/A   Clear
7:51 PM 18.0 °F 8.7 °F 3.9 °F 54% 30.40 in 10.0 mi SSE 6.9 mph - N/A   Clear
8:50 PM 17.6 °F 8.2 °F 8.6 °F 68% 30.25 in 10.0 mi SW 6.9 mph - N/A   Clear
8:51 PM 19.0 °F 13.9 °F 3.9 °F 52% 30.40 in 10.0 mi Variable 3.5 mph - N/A   Clear
9:51 PM 18.0 °F 9.8 °F 3.9 °F 54% 30.39 in 10.0 mi SSE 5.8 mph - N/A   Clear
10:51 PM 18.0 °F 9.8 °F 3.9 °F 54% 30.38 in 10.0 mi SSE 5.8 mph - N/A   Clear
11:51 PM 19.0 °F - 3.9 °F 52% 30.37 in 10.0 mi Calm Calm - N/A   Clear